Total_Precipitation_Accumulation
0.77 0.78 0.74 0.79 0.86 1.10 1.29 1.20 0.96 0.86 0.85 0.79 0.73 0.79 0.92 0.99 1.10 1.19 1.23 1.24 1.22 1.26 1.16 1.11 1.18 1.19 1.30 1.29 1.27 1.18 1.07 0.94 0.84 0.70 0.48 0.29 0.19 0.14 0.11 0.06 0.03 0.02 0.02
0.59 0.62 0.67 0.68 0.76 0.85 0.91 0.91 0.78 0.65 0.60 0.60 0.66 0.68 0.74 0.83 0.90 0.92 0.97 1.02 1.01 1.02 0.98 0.90 0.91 0.98 1.03 1.16 1.22 1.21 1.15 1.02 0.94 0.85 0.62 0.42 0.30 0.21 0.15 0.10 0.06 0.04 0.04
0.56 0.60 0.64 0.65 0.65 0.62 0.57 0.53 0.54 0.53 0.51 0.51 0.61 0.67 0.71 0.75 0.86 0.83 0.81 0.82 0.83 0.80 0.79 0.77 0.75 0.81 0.93 1.00 0.96 1.02 1.09 1.11 1.07 0.97 0.79 0.58 0.41 0.28 0.19 0.14 0.09 0.08 0.07
0.71 0.77 0.80 0.78 0.73 0.68 0.62 0.55 0.53 0.55 0.56 0.58 0.67 0.71 0.71 0.78 0.79 0.77 0.76 0.75 0.70 0.64 0.62 0.59 0.56 0.58 0.67 0.86 0.85 0.83 0.93 1.01 1.12 1.10 0.94 0.66 0.49 0.37 0.27 0.22 0.21 0.18 0.15
0.63 0.74 0.78 0.78 0.76 0.71 0.63 0.55 0.54 0.51 0.48 0.54 0.62 0.71 0.76 0.78 0.72 0.75 0.77 0.78 0.71 0.61 0.55 0.53 0.51 0.55 0.68 0.72 0.69 0.78 0.90 0.92 0.98 1.02 0.99 0.83 0.63 0.47 0.34 0.30 0.28 0.28 0.24
0.53 0.62 0.77 0.82 0.73 0.67 0.58 0.54 0.53 0.50 0.46 0.48 0.53 0.66 0.76 0.68 0.94 0.94 0.77 0.71 0.68 0.57 0.51 0.47 0.41 0.40 0.55 0.74 0.78 0.77 0.82 0.91 0.93 0.92 0.91 0.84 0.73 0.63 0.56 0.49 0.37 0.30 0.28
0.47 0.58 0.77 0.77 0.65 0.60 0.64 0.64 0.57 0.54 0.54 0.54 0.52 0.54 0.59 0.73 0.65 0.51 0.48 0.44 0.53 0.51 0.43 0.37 0.30 0.27 0.34 0.44 0.52 0.53 0.66 0.85 0.96 0.93 0.82 0.80 0.84 0.77 0.65 0.54 0.46 0.40 0.39
0.37 0.46 0.61 0.64 0.62 0.64 0.64 0.60 0.51 0.47 0.47 0.49 0.49 0.49 0.53 0.57 0.44 0.35 0.33 0.29 0.39 0.40 0.35 0.33 0.32 0.28 0.30 0.39 0.47 0.52 0.56 0.66 0.82 0.77 0.69 0.73 0.76 0.72 0.65 0.60 0.59 0.53 0.44
0.25 0.33 0.42 0.45 0.50 0.52 0.51 0.52 0.48 0.43 0.43 0.43 0.45 0.50 0.55 0.50 0.42 0.31 0.26 0.33 0.42 0.37 0.32 0.34 0.33 0.33 0.45 0.48 0.42 0.46 0.57 0.59 0.72 0.76 0.82 0.80 0.66 0.53 0.52 0.55 0.58 0.56 0.51
0.18 0.25 0.32 0.34 0.38 0.41 0.46 0.49 0.49 0.45 0.41 0.39 0.39 0.40 0.46 0.45 0.47 0.27 0.29 0.44 0.49 0.49 0.46 0.41 0.48 0.47 0.54 0.50 0.40 0.49 0.64 0.54 0.50 0.55 0.56 0.54 0.45 0.38 0.41 0.41 0.50 0.55 0.53
0.10 0.15 0.22 0.29 0.36 0.44 0.50 0.51 0.52 0.49 0.43 0.41 0.45 0.43 0.41 0.47 0.53 0.41 0.37 0.43 0.56 0.57 0.54 0.53 0.48 0.51 0.49 0.50 0.49 0.57 0.76 0.65 0.49 0.50 0.54 0.51 0.39 0.33 0.34 0.38 0.43 0.49 0.51
0.06 0.10 0.17 0.25 0.33 0.41 0.50 0.52 0.51 0.52 0.50 0.51 0.51 0.52 0.50 0.47 0.50 0.48 0.42 0.43 0.49 0.53 0.58 0.55 0.52 0.49 0.37 0.39 0.38 0.48 0.71 0.66 0.49 0.49 0.54 0.53 0.47 0.40 0.38 0.36 0.36 0.39 0.41
0.02 0.06 0.11 0.15 0.19 0.24 0.31 0.39 0.45 0.49 0.50 0.50 0.54 0.61 0.62 0.56 0.56 0.61 0.43 0.35 0.36 0.40 0.43 0.50 0.48 0.41 0.32 0.27 0.29 0.35 0.49 0.66 0.62 0.53 0.48 0.46 0.46 0.45 0.42 0.36 0.30 0.29 0.29
0.01 0.03 0.05 0.06 0.07 0.10 0.19 0.27 0.34 0.41 0.46 0.53 0.59 0.67 0.74 0.68 0.60 0.53 0.42 0.35 0.33 0.30 0.27 0.26 0.28 0.29 0.29 0.27 0.26 0.29 0.42 0.60 0.64 0.56 0.47 0.46 0.47 0.44 0.38 0.34 0.32 0.31 0.29
0.01 0.01 0.02 0.04 0.05 0.08 0.14 0.22 0.26 0.34 0.36 0.40 0.50 0.62 0.66 0.65 0.63 0.66 0.61 0.55 0.50 0.46 0.40 0.31 0.27 0.29 0.33 0.36 0.35 0.33 0.38 0.49 0.52 0.48 0.44 0.40 0.41 0.44 0.40 0.33 0.29 0.26 0.26
0.06 0.03 0.02 0.03 0.06 0.08 0.11 0.12 0.12 0.16 0.16 0.20 0.25 0.30 0.34 0.36 0.37 0.35 0.40 0.46 0.44 0.38 0.45 0.51 0.49 0.48 0.47 0.44 0.42 0.34 0.29 0.33 0.41 0.43 0.41 0.37 0.35 0.39 0.41 0.36 0.32 0.30 0.26
0.14 0.11 0.07 0.05 0.05 0.06 0.07 0.09 0.09 0.06 0.05 0.07 0.08 0.13 0.20 0.21 0.21 0.20 0.23 0.30 0.36 0.37 0.48 0.53 0.49 0.43 0.39 0.35 0.34 0.31 0.27 0.27 0.30 0.34 0.35 0.36 0.35 0.38 0.43 0.44 0.40 0.37 0.33
0.03 0.03 0.05 0.08 0.05 0.04 0.07 0.13 0.18 0.20 0.14 0.08 0.04 0.06 0.11 0.14 0.16 0.17 0.19 0.23 0.22 0.26 0.35 0.42 0.39 0.35 0.29 0.26 0.23 0.21 0.21 0.22 0.23 0.26 0.29 0.31 0.36 0.39 0.42 0.46 0.50 0.47 0.44
0.01 0.03 0.09 0.10 0.06 0.05 0.10 0.18 0.20 0.19 0.18 0.12 0.05 0.03 0.04 0.06 0.08 0.09 0.12 0.16 0.14 0.13 0.17 0.24 0.27 0.26 0.22 0.17 0.13 0.10 0.09 0.09 0.11 0.14 0.19 0.24 0.29 0.35 0.40 0.42 0.45 0.49 0.49
0.02 0.02 0.09 0.14 0.08 0.08 0.10 0.10 0.10 0.12 0.10 0.07 0.05 0.05 0.04 0.06 0.06 0.05 0.05 0.07 0.08 0.07 0.09 0.13 0.15 0.17 0.15 0.13 0.10 0.08 0.07 0.07 0.07 0.08 0.11 0.16 0.20 0.24 0.29 0.35 0.41 0.43 0.42
0.06 0.03 0.03 0.14 0.17 0.14 0.12 0.10 0.11 0.13 0.09 0.05 0.03 0.01 0.02 0.05 0.07 0.06 0.05 0.06 0.07 0.08 0.08 0.08 0.10 0.14 0.12 0.11 0.10 0.10 0.08 0.07 0.07 0.08 0.08 0.09 0.12 0.16 0.19 0.21 0.24 0.29 0.34
0.02 0.03 0.04 0.13 0.18 0.14 0.11 0.11 0.12 0.10 0.08 0.05 0.03 0.01 0.02 0.04 0.05 0.06 0.05 0.06 0.07 0.08 0.08 0.06 0.08 0.11 0.12 0.10 0.09 0.10 0.09 0.08 0.07 0.08 0.09 0.10 0.10 0.10 0.10 0.12 0.13 0.15 0.18
0.01 0.02 0.03 0.07 0.08 0.04 0.05 0.08 0.09 0.09 0.06 0.04 0.03 0.02 0.02 0.03 0.04 0.04 0.04 0.07 0.10 0.11 0.08 0.06 0.08 0.12 0.14 0.14 0.12 0.12 0.12 0.12 0.10 0.08 0.08 0.10 0.12 0.12 0.11 0.11 0.11 0.13 0.15
0.01 0.01 0.02 0.04 0.04 0.05 0.07 0.08 0.07 0.06 0.06 0.04 0.03 0.03 0.04 0.05 0.04 0.04 0.05 0.07 0.10 0.11 0.08 0.07 0.07 0.09 0.12 0.15 0.16 0.16 0.15 0.14 0.11 0.08 0.08 0.09 0.10 0.10 0.11 0.11 0.13 0.15 0.17
0.02 0.01 0.02 0.03 0.04 0.05 0.05 0.07 0.07 0.06 0.07 0.06 0.05 0.04 0.04 0.05 0.06 0.04 0.03 0.04 0.06 0.06 0.05 0.05 0.07 0.11 0.13 0.14 0.16 0.18 0.23 0.22 0.16 0.11 0.09 0.09 0.10 0.11 0.13 0.15 0.18 0.20 0.24
0.02 0.01 0.02 0.04 0.05 0.06 0.06 0.07 0.06 0.06 0.07 0.06 0.06 0.06 0.06 0.06 0.05 0.04 0.04 0.04 0.04 0.04 0.07 0.07 0.08 0.11 0.13 0.14 0.12 0.12 0.14 0.14 0.13 0.13 0.10 0.09 0.09 0.11 0.14 0.17 0.21 0.26 0.30